Regional Weather Roundup
Issued by NWS Portland, ME

Current Version | Previous Version | Text Only | Print | Product List | Glossary On
Versions: 1 2 3 4 5 6 7 8 9 10 11 12 13 14 15 16 17 18 19 20 21 22 23 24 25 26 27 28 29 30 31 32 33 34 35 36 37 38 39 40 41 42 43 44 45 46 47 48 49 50
000
ASUS41 KGYX 281410
RWRGYX
WEATHER ROUNDUP FOR MAINE AND NEW HAMPSHIRE
NATIONAL WEATHER SERVICE GRAY ME
1000 AM EDT MON JUL 28 2014

MEZ002-005-006-010-012-015-018-020-021-024-026-027-029-281500-
MAINE

CITY           SKY/WX    TMP DP  RH WIND       PRES   REMARKS
PORTLAND       FOG       65  65 100 E8        29.60F VSB<1/4
SANFORD        CLOUDY    66  63  88 SE5       29.60S
BAR HARBOR     CLOUDY    64  64 100 E5        29.69F
WISCASSET      FOG       68  67  96 CALM      29.66F VSB 3/4
ROCKLAND       CLOUDY    64  64 100 E8        29.65F VSB 1/4
FRYEBURG       CLOUDY    68  66  93 E7        29.61F
LEWISTONAUBURN CLOUDY    66  64  94 E9        29.64F
AUGUSTA        FOG       67  67 100 SE9       29.66F VSB 3/4
WATERVILLE     CLOUDY    68  66  94 CALM      29.62F
BANGOR         CLOUDY    70  67  90 SE6       29.69S FOG
GREENVILLE       N/A     64  62  93 E7        29.69F
MILLINOCKET    CLOUDY    67  65  93 SE3       29.71F FOG
HOULTON        CLOUDY    67  64  90 VRB3      29.71F
PRESQUE ISLE   CLOUDY    66  61  82 SE8       29.73S
FRENCHVILLE    CLOUDY    64  62  93 SE6       29.72S
CARIBOU        CLOUDY    67  64  90 S7        29.72S
$$

NHZ002-005-008-009-011-012-014-281500-
NEW HAMPSHIRE

CITY           SKY/WX    TMP DP  RH WIND       PRES   REMARKS
PORTSMOUTH     LGT RAIN  66  66  98 E10       29.57F FOG
ROCHESTER      HVY RAIN  67  65  93 E8        29.58F FOG
NASHUA         LGT RAIN  72  72 100 CALM      29.56F FOG
MANCHESTER     LGT RAIN  71  70  96 SE10      29.54F FOG
CONCORD        LGT RAIN  69  67  93 SE5       29.56F
LACONIA          N/A     68  64  88 E5        29.58R
PLYMOUTH       TSTM      66  65  96 CALM      29.55F
BERLIN         LGT RAIN  64  63  96 N6        29.63F
WHITEFIELD     HVY RAIN  63  60  90 NE7       29.62F FOG
JAFFREY        CLOUDY    70  67  90 S7        29.58S
LEBANON        LGT RAIN  65  63  93 N6        29.55F
MT WASHINGTON  TSTM      52  52 100 SE12G38     N/A  VSB 1/2
$$

VTZ005-007-008-281500-
VERMONT

CITY           SKY/WX    TMP DP  RH WIND       PRES   REMARKS
ST JOHNSBURY     N/A     63  62  97 MISG      29.60F
MONTPELIER     RAIN      61  61 100 VRB3      29.65F FOG
BURLINGTON     RAIN      66  64  93 E5        29.60S FOG
$$

MAZ007-012-024-CTZ003-RIZ002-NYZ038-NYZ072-281500-
SOUTHERN NEW ENGLAND AND NY

CITY           SKY/WX    TMP DP  RH WIND       PRES   REMARKS
BOSTON         CLOUDY    69  68  96 CALM      29.56R
WORCESTER      CLOUDY    69  68  96 S12G21    29.59S
NANTUCKET      LGT RAIN  69  67  93 S18G30    29.60F FOG
PROVIDENCE     PTSUNNY   76  68  76 S18G25    29.57F
HARTFORD       CLOUDY    73  67  81 S9        29.54R
ALBANY         CLOUDY    68  63  84 VRB3      29.54S
NEW YORK CITY  PTSUNNY   75  65  70 SW12      29.55S
$$

ANZ081-ANZ082-ANZ150-NHZ014-MEZ023>029-281500-
COASTAL MARINE OBSERVATIONS

STATION/POSITION TIME  TEMP    WIND        PRES    WAVE
                       AIR SEA DIR/SP/G            HT/PER
                 (UTC) (F)     (DEG/KT/KT) (MB)    (FT/S)
MOUNT DESERT ROC 1400   59                 1004.9F
MATINICUS ROCK   1300          140/ 20/ 21 1004.2S
PORTLAND WX BUOY 1400   63 60   90/  8/ 10 1002.4F   2/ 5
WELLS            1400   63 57  110/  3/  8 1001.7R
ISLE OF SHOALS   1300   65     120/ 17/ 18 1001.1F
JEFFREYS LEDGE   1400      63                N/A     2/ 7
CASHES LEDGE BUO 1400   66 65  150/ 12/ 14 1002.8F   3/ 5
$$

.............KEY..............
   WCI - WIND CHILL
   TC  - TEMPERATURE IN CELSIUS
   VSB - VISIBILITY IN MILES
   HX  - HEAT INDEX
   FAIR- INDICATES FEW OR NO CLOUDS BELOW 12,000 FT, WITH NO
         SIGNIFICANT WEATHER AND/OR OBSTRUCTIONS TO VISIBILITY.





USA.gov is the U.S. government's official web portal to all federal, state and local government web resources and services.